User: anonymous   Login
Location: Unspecified
(0.0000°N, 0.0000°E)
Time: 13:58:30
(UTC+00:00)
Language:

Hubble Space Telescope - Orbit

View from above orbital plane
View from above orbital plane
View from above satellite
View from above satellite

Ground track
Ground track

The orbit data is extracted from the following two-line orbital elements,

1 20580U 90037B   17085.73697272 +.00000727 +00000-0 +34031-4 0  9999
2 20580 028.4692 192.3136 0002806 011.1448 124.4822 15.08711433277820
Epoch (UTC): 26 March 2017 17:41:14
Eccentricity: 0.0002806
inclination: 28.4692°
perigee height: 538 km
apogee height: 542 km
right ascension of ascending node: 192.3136°
argument of perigee: 11.1448°
revolutions per day: 15.08711433
mean anomaly at epoch: 124.4822°
orbit number at epoch: 27782

The dashed part of the orbit path shows where the satellite is in the earth's shadow,  

DLR